Hill Air Force Base, UT

12:22 PM MDT on September 27, 2016 (GMT -0600)
Hill Air Force Base

Weather History for KHIF - July, 2013

Change the Weather History Date:

Sunday, July 14, 2013

  Actual Average Record
Temperature  
Mean Temperature 76 °F -  
Max Temperature 91 °F 87 °F 100 °F (2002)
Min Temperature 63 °F 63 °F 53 °F (1996)
Cooling Degree Days 12    
Growing Degree Days 26 (Base 50)    
Moisture  
Dew Point 50 °F    
Average Humidity 41    
Maximum Humidity 65    
Minimum Humidity 16    
Precipitation  
Precipitation 0.00 in - - ()
Sea Level Pressure  
Sea Level Pressure 29.96 in    
Wind  
Wind Speed 12 mph (East)    
Max Wind Speed 21 mph    
Max Gust Speed 25 mph    
Visibility 10 miles    
Events Rain    
Averages and records for this station are not official NWS values.
T = Trace of Precipitation, MM = Missing Value Source: NWS Daily Summary

Daily Weather History Graph

Daily Weather History Graph

Search for Another Location

Airport or City:

Trip Planner

Search our weather history database for the weather conditions in past years. The results will help you decide how hot, cold, wet, or windy it might be!

Date:

Astronomy

Jul. 14, 2013 Rise Set
Actual Time 6:07 AM MDT 8:59 PM MDT
Civil Twilight 5:35 AM MDT 9:32 PM MDT
Nautical Twilight 4:53 AM MDT 10:13 PM MDT
Astronomical Twilight 4:06 AM MDT 11:00 PM MDT
Moon 12:32 PM MDT (7/14) No Moon Set
Length of Visible Light 15h 56m
Length of Day
14h 51m
Waxing Crescent, 35% of the Moon is Illuminated
Jul 14
Waxing Crescent
Jul 15
First Quarter
Jul 22
Full
Jul 29
Last Quarter
Aug 6
New

Hourly Weather History & Observations

Time (MDT) Temp. Heat Index Dew Point Humidity Pressure Visibility Wind Dir Wind Speed Gust Speed Precip Events Conditions
12:58 AM 71.8 °F - 50.9 °F 48% 29.95 in 10.0 mi East 12.7 mph 23.0 mph -   Overcast
1:58 AM 70.3 °F - 51.1 °F 50% 29.95 in 10.0 mi East 17.3 mph - -   Mostly Cloudy
2:58 AM 68.9 °F - 52.0 °F 55% 29.95 in 10.0 mi East 20.7 mph 25.3 mph -   Clear
3:58 AM 66.4 °F - 52.0 °F 60% 29.95 in 10.0 mi ESE 18.4 mph 25.3 mph -   Clear
4:58 AM 65.1 °F - 52.0 °F 62% 29.96 in 10.0 mi ESE 17.3 mph - -   Clear
5:58 AM 64.4 °F - 51.8 °F 64% 29.98 in 10.0 mi ESE 13.8 mph - -   Clear
6:58 AM 63.7 °F - 51.8 °F 65% 30.01 in 10.0 mi ESE 13.8 mph - -   Clear
7:58 AM 66.2 °F - 52.3 °F 61% 30.00 in 10.0 mi ESE 18.4 mph - -   Clear
8:58 AM 68.7 °F - 53.8 °F 59% 30.02 in 10.0 mi ESE 16.1 mph - -   Clear
9:58 AM 74.1 °F - 55.6 °F 52% 30.01 in 10.0 mi East 10.4 mph - -   Clear
10:58 AM 77.7 °F - 56.5 °F 48% 30.01 in 10.0 mi Variable 5.8 mph - -   Clear
11:05 AM 78.8 °F - 55.4 °F 44% 30.18 in 10.0 mi Variable 4.6 mph - N/A Rain Light Rain
11:12 AM 78.8 °F - 55.4 °F 44% 30.18 in 10.0 mi ESE 4.6 mph - N/A   Clear
11:58 AM 82.2 °F 81.3 °F 53.2 °F 37% 29.99 in 10.0 mi Variable 1.2 mph - -   Clear
12:58 PM 84.6 °F - 50.4 °F 31% 29.97 in 10.0 mi NE 3.5 mph - -   Clear
1:58 PM 86.9 °F - 51.6 °F 30% 29.96 in 10.0 mi North 6.9 mph - -   Clear
2:58 PM 88.3 °F - 49.6 °F 26% 29.94 in 10.0 mi North 9.2 mph - -   Clear
3:58 PM 89.4 °F - 47.7 °F 24% 29.92 in 10.0 mi West 9.2 mph - -   Clear
4:58 PM 90.3 °F - 44.2 °F 20% 29.91 in 10.0 mi Variable 3.5 mph - -   Clear
5:58 PM 90.9 °F - 43.0 °F 19% 29.89 in 10.0 mi North 5.8 mph - -   Clear
6:58 PM 90.0 °F - 37.9 °F 16% 29.88 in 10.0 mi Variable 4.6 mph - -   Clear
7:58 PM 87.1 °F - 45.1 °F 23% 29.86 in 10.0 mi North 5.8 mph - -   Clear
8:58 PM 82.2 °F - 42.6 °F 25% 29.88 in 10.0 mi ESE 5.8 mph - -   Clear
9:58 PM 79.7 °F - 43.5 °F 28% 29.88 in 10.0 mi East 10.4 mph - -   Clear
10:58 PM 78.8 °F - 43.9 °F 29% 29.88 in 10.0 mi East 18.4 mph 24.2 mph -   Clear
11:58 PM 75.6 °F - 45.1 °F 34% 29.88 in 10.0 mi ESE 17.3 mph 24.2 mph -   Clear